Location: Belvedere Heights
(33.9836°N, 117.3109°W)
Time: 07:18:27
(UTC+00:00)

Envisat - Visible Passes

Search period start: 27 February 2024 00:00
Search period end: 08 March 2024 00:00
Orbit: 762 x 764 km, 98.3° (Epoch: 26 February)

Date Brightness Start Highest point End Pass type
(mag) Time Alt. Az. Time Alt. Az. Time Alt. Az.
02 Mar 5.7 11:29:41 10° N 11:29:41 10° N 11:29:41 10° N visible
04 Mar 5.4 11:54:25 10° N 11:54:41 11° N 11:54:41 11° N visible
05 Mar 5.6 11:16:44 10° N 11:17:05 12° N 11:17:05 12° N visible
06 Mar 5.3 12:19:33 10° NNW 12:19:40 10° NNW 12:19:40 10° NNW visible
07 Mar 5.3 11:41:18 10° N 11:42:04 14° N 11:42:04 14° N visible
